Tracking 20241 objects as of 25-Jan-2020
HD Live streaming from Space Station
objects crossing your sky now

COSMOS 2251 DEB

Track COSMOS 2251 DEB now!
10-day predictions


NORAD ID: 34476
Int'l Code: 1993-036TV
Perigee: 755.7 km
Apogee: 1,303.3 km
Inclination: 74.0 °
Period: 105.6 minutes
Semi major axis: 7400 km
RCS: 0.0374 m2 (small)
Launch date: June 16, 1993
Source: Commonwealth of Independent States (former USSR) (CIS)
Launch site: PLESETSK MISSILE AND SPACE COMPLEX (PKMTR)

Note: This is SATELLITE DEBRIS
aabbcc
Your satellite tracking list
Your tracking list is empty




NASA's NSSDC Master Catalog

Two Line Element Set (TLE):
1 34476U 93036TV  20024.43956146  .00001028  00000-0  83531-3 0  9995
2 34476  74.0158  28.2803 0369959 343.3311  15.5897 13.63677676542168
Source of the keplerian elements: AFSPC